STARLINK-32475, 61728

Orbit data source: Space-Track

STARLINK-32475, 61728 is a payload satellite owned by SpaceX/Seattle (US) in LEO that was launched on Wed, 30 Oct 2024 UTC via an FALCON 9 launch vehicle from the Air Force Eastern Test Range (AFETR). Payload-class satellites include a variety of spacecraft equipped with specific instruments for various scientific and technological missions. These include communications satellites like Starlink; space stations such as the ISS; scientific satellites like the Hubble; Earth observation satellites from companies like Planet Labs, Umbra, and HawkEye 360; GPS; miniature CubeSats for education and research; and military/defense satellites.

Loading next visibility...
Identifier
61728, 2024-196X
Orbit
LEO
Last TLE update
18 hours ago
Origin
Manufacturer
SpaceX/Seattle
Mission
Operational Commercial Communications
Bus & Motor
STARLINK V2M, Unknown motor
Mass
730 kg wet, ~700 kg dry
Launch date (UTC)
2024-10-30 (8 months ago)
Launch vehicle
FALCON 9
Launch site
Air Force Eastern Test Range (AFETR)
Object type
Payload
Rocket body
Debris
Shape & HBR
Box + 2 Pan, 29 m
Radar Cross Section
36.964 m², Large (>1 m²)

Expand to show TLE details & history

TLE from 18 hours ago
0 STARLINK-32475
1 61728U 24196X   25191.60682748 -.00000087  00000-0  91636-5 0  9991
2 61728  53.1602 145.7154 0000743  85.0320 275.0765 15.30193040 39956
Epoch: 2025-07-10T14:33Z
TLE epoch observation values (Epoch: 2025-07-10T14:33:49.894Z)
Latitude
-0.00006°
Longitude
-1.51322°
Altitude
476.091 km
Speed
7.629 km/s
True Right ascension
09h 42m 51s
True Declination
0° 00' 00"
Sunlit
Object was in daylight at epoch
Visualization orbit readout
Latitude
47.61119°
Longitude
120.34331°
Altitude
480.051 km
Speed
7.632 km/s
Apparent Right ascension
12h 55m 49s
Apparent Declination
16° 05' 13"
Sunlit
Object is in daylight
Visualization observer readout
Local Sidereal Time
20:35:25
Azimuth
298.445° NW
Elevation
-7.613°
Doppler factor
1
Orbital elements
Apogee altitude
476.001 km
Perigee altitude
474.983 km
Semi-major axis
6,853.629 km
Eccentricity
0.00007
Inclination
53.1602°
RAAN
145.7154°
Arg. of periapsis
85.032°
True anomaly
Unknown
Mean anomaly
275.0765°
Eccentric anomaly
Unknown
Mean motion
3.82527 °/min
Orbital period
94.11 mins
BSTAR
0.0000091636
Loading maneuver chart data...
Loading SW <> Apogee altitude chart data...
Loading historical data...
Loading historical data...
Loading historical data...
Loading historical data...
Loading historical data...
Loading historical data...
Loading historical data...

STARLINK-32475 Visibility forecast

Observer location: undefined°, undefined°

Span
Click to sort rows by Start time (UTC) header in descending order
Start Az.
Max El. time (UTC)
Max El. Az.
Max El.
End time (UTC)
End Az.
6 mins2025-07-11 23:40:54.041Z239.631° WSW2025-07-11 23:42:54.041Z276.063° WNW42.027°2025-07-11 23:46:54.041Z46.433° ENE
4 mins2025-07-12 04:37:54.041Z342.645° N2025-07-12 04:39:54.041Z20.072° NNE17.826°2025-07-12 04:41:54.041Z59.379° ENE
6 mins2025-07-12 06:15:54.041Z308.815° NW2025-07-12 06:17:54.041Z301.422° NW42.793°2025-07-12 06:21:54.041Z132.572° SE
|